TimeCST,TemperatureF,Dew PointF,Humidity,Sea Level PressureIn,VisibilityMPH,Wind Direction,Wind SpeedMPH,Gust SpeedMPH,PrecipitationIn,Events,Conditions,WindDirDegrees,DateUTC
12:15 AM,36.3,26.4,67,29.81,10.0,West,8.1,-,N/A,,Scattered Clouds,270,2013-02-05 06:15:00
12:35 AM,35.8,26.2,68,29.81,10.0,WSW,9.2,-,N/A,,Scattered Clouds,250,2013-02-05 06:35:00
12:55 AM,35.4,26.6,70,29.80,10.0,West,9.2,-,N/A,,Mostly Cloudy,260,2013-02-05 06:55:00
1:15 AM,36.9,27.0,67,29.80,10.0,West,11.5,-,N/A,,Overcast,260,2013-02-05 07:15:00
1:35 AM,37.6,27.1,66,29.80,10.0,West,10.4,-,N/A,,Overcast,260,2013-02-05 07:35:00
1:55 AM,37.9,27.1,65,29.80,10.0,West,8.1,-,N/A,,Overcast,260,2013-02-05 07:55:00
2:15 AM,37.8,27.3,66,29.81,10.0,West,9.2,-,N/A,,Overcast,260,2013-02-05 08:15:00
2:35 AM,38.1,27.1,65,29.82,10.0,West,8.1,-,N/A,,Overcast,270,2013-02-05 08:35:00
2:55 AM,38.3,27.0,64,29.82,10.0,West,8.1,-,N/A,,Overcast,270,2013-02-05 08:55:00
3:15 AM,38.1,26.6,63,29.82,10.0,West,9.2,-,N/A,,Overcast,270,2013-02-05 09:15:00
3:35 AM,38.5,26.4,62,29.82,10.0,West,10.4,-,N/A,,Overcast,270,2013-02-05 09:35:00
3:55 AM,38.7,26.4,61,29.82,10.0,West,9.2,-,N/A,,Overcast,270,2013-02-05 09:55:00
4:15 AM,38.8,25.7,59,29.83,10.0,WNW,9.2,-,N/A,,Overcast,290,2013-02-05 10:15:00
4:35 AM,39.0,25.3,58,29.83,10.0,West,10.4,-,N/A,,Mostly Cloudy,280,2013-02-05 10:35:00
4:55 AM,37.6,25.2,61,29.83,10.0,West,10.4,-,N/A,,Scattered Clouds,270,2013-02-05 10:55:00
5:15 AM,37.8,25.3,61,29.85,10.0,West,12.7,-,N/A,,Scattered Clouds,270,2013-02-05 11:15:00
5:35 AM,38.3,25.7,61,29.84,10.0,West,9.2,-,N/A,,Overcast,280,2013-02-05 11:35:00
5:55 AM,39.2,26.6,61,29.85,10.0,West,12.7,-,N/A,,Overcast,280,2013-02-05 11:55:00
6:15 AM,38.1,26.1,62,29.87,10.0,West,8.1,-,N/A,,Overcast,280,2013-02-05 12:15:00
6:35 AM,37.4,26.6,65,29.87,10.0,WNW,9.2,-,N/A,,Overcast,300,2013-02-05 12:35:00
6:55 AM,39.4,27.0,61,29.89,10.0,NW,10.4,-,N/A,,Overcast,320,2013-02-05 12:55:00
7:15 AM,39.2,27.1,62,29.90,10.0,NW,11.5,-,N/A,,Overcast,320,2013-02-05 13:15:00
7:35 AM,37.2,27.0,66,29.91,10.0,NNW,11.5,-,N/A,,Scattered Clouds,330,2013-02-05 13:35:00
7:55 AM,37.9,27.5,66,29.91,10.0,NNW,16.1,-,N/A,,Clear,340,2013-02-05 13:55:00
8:15 AM,38.5,27.5,65,29.92,10.0,NNW,17.3,-,N/A,,Clear,340,2013-02-05 14:15:00
8:35 AM,38.3,27.7,66,29.95,10.0,NNW,12.7,18.4,N/A,,Clear,330,2013-02-05 14:35:00
8:55 AM,39.4,27.7,63,29.95,10.0,NNW,13.8,-,N/A,,Mostly Cloudy,340,2013-02-05 14:55:00
9:15 AM,39.4,27.1,62,29.97,10.0,NNW,15.0,21.9,N/A,,Overcast,330,2013-02-05 15:15:00
9:35 AM,39.6,26.6,60,29.98,10.0,NNW,17.3,21.9,N/A,,Overcast,340,2013-02-05 15:35:00
9:55 AM,39.4,26.1,59,29.98,10.0,NNW,15.0,21.9,N/A,,Overcast,340,2013-02-05 15:55:00
10:15 AM,40.6,26.2,57,30.00,10.0,NNW,12.7,-,N/A,,Overcast,330,2013-02-05 16:15:00
10:35 AM,41.4,23.4,49,30.01,10.0,NW,15.0,-,N/A,,Scattered Clouds,320,2013-02-05 16:35:00
10:55 AM,41.9,21.4,44,30.01,10.0,NNW,13.8,-,N/A,,Clear,330,2013-02-05 16:55:00
11:15 AM,43.0,21.0,42,30.01,10.0,NNW,13.8,-,N/A,,Clear,340,2013-02-05 17:15:00
11:35 AM,43.7,20.8,40,30.01,10.0,NNW,15.0,-,N/A,,Clear,340,2013-02-05 17:35:00
11:55 AM,43.7,20.8,40,30.02,10.0,NW,12.7,-,N/A,,Clear,320,2013-02-05 17:55:00
12:15 PM,44.6,20.8,39,30.01,10.0,NW,13.8,17.3,N/A,,Clear,320,2013-02-05 18:15:00
12:35 PM,45.0,20.7,38,30.01,10.0,NW,12.7,17.3,N/A,,Clear,310,2013-02-05 18:35:00
12:55 PM,45.0,20.1,37,30.00,10.0,NW,6.9,-,N/A,,Clear,310,2013-02-05 18:55:00
1:15 PM,46.2,20.1,35,29.99,10.0,NNW,9.2,17.3,N/A,,Clear,330,2013-02-05 19:15:00
1:35 PM,46.8,20.1,35,29.99,10.0,WNW,11.5,-,N/A,,Clear,290,2013-02-05 19:35:00
1:55 PM,47.1,20.3,35,29.98,10.0,NW,11.5,-,N/A,,Clear,310,2013-02-05 19:55:00
2:15 PM,47.5,20.3,34,29.98,10.0,NW,9.2,-,N/A,,Clear,320,2013-02-05 20:15:00
2:35 PM,47.7,20.1,34,29.97,10.0,NW,8.1,-,N/A,,Clear,310,2013-02-05 20:35:00
2:55 PM,48.2,20.1,33,29.96,10.0,NW,6.9,-,N/A,,Clear,310,2013-02-05 20:55:00
3:15 PM,48.6,19.9,32,29.96,10.0,WNW,8.1,-,N/A,,Clear,300,2013-02-05 21:15:00
3:35 PM,48.7,19.9,32,29.96,10.0,WNW,8.1,-,N/A,,Clear,300,2013-02-05 21:35:00
3:55 PM,49.1,20.1,32,29.96,10.0,NW,6.9,-,N/A,,Clear,310,2013-02-05 21:55:00
4:15 PM,48.9,21.0,33,29.95,10.0,West,4.6,-,N/A,,Clear,280,2013-02-05 22:15:00
4:35 PM,48.7,21.2,34,29.95,10.0,NW,3.5,-,N/A,,Clear,310,2013-02-05 22:35:00
4:55 PM,48.4,21.6,35,29.95,10.0,NNW,4.6,-,N/A,,Clear,340,2013-02-05 22:55:00
5:15 PM,46.2,22.1,39,29.94,10.0,North,3.5,-,N/A,,Clear,360,2013-02-05 23:15:00
5:35 PM,45.7,22.1,39,29.94,10.0,Calm,Calm,-,N/A,,Clear,0,2013-02-05 23:35:00
5:55 PM,41.2,22.6,48,29.94,10.0,Calm,Calm,-,N/A,,Clear,0,2013-02-05 23:55:00
6:15 PM,40.6,23.0,49,29.94,10.0,East,3.5,-,N/A,,Clear,80,2013-02-06 00:15:00
6:35 PM,39.4,24.4,55,29.94,10.0,ESE,5.8,-,N/A,,Scattered Clouds,110,2013-02-06 00:35:00
6:55 PM,39.4,24.3,55,29.94,10.0,ESE,6.9,-,N/A,,Scattered Clouds,120,2013-02-06 00:55:00
7:15 PM,39.6,24.8,56,29.94,10.0,ESE,6.9,-,N/A,,Scattered Clouds,120,2013-02-06 01:15:00
7:35 PM,39.2,24.8,56,29.94,10.0,ESE,5.8,-,N/A,,Scattered Clouds,120,2013-02-06 01:35:00
7:55 PM,39.2,24.8,56,29.93,10.0,SE,5.8,-,N/A,,Mostly Cloudy,130,2013-02-06 01:55:00
8:15 PM,39.2,24.8,56,29.94,10.0,SE,6.9,-,N/A,,Overcast,130,2013-02-06 02:15:00
8:35 PM,38.5,24.8,58,29.94,10.0,SE,6.9,-,N/A,,Overcast,130,2013-02-06 02:35:00
8:55 PM,37.9,25.2,60,29.93,10.0,ESE,5.8,-,N/A,,Overcast,120,2013-02-06 02:55:00
9:15 PM,38.5,25.0,58,29.92,10.0,ESE,6.9,-,N/A,,Overcast,120,2013-02-06 03:15:00
9:35 PM,38.7,24.6,57,29.92,10.0,SE,8.1,-,N/A,,Overcast,130,2013-02-06 03:35:00
9:55 PM,39.2,23.9,54,29.92,10.0,ESE,6.9,-,N/A,,Overcast,120,2013-02-06 03:55:00
10:15 PM,39.2,23.7,54,29.92,10.0,SE,8.1,-,N/A,,Overcast,140,2013-02-06 04:15:00
10:35 PM,37.9,23.7,57,29.92,10.0,SE,8.1,-,N/A,,Overcast,140,2013-02-06 04:35:00
10:55 PM,37.4,23.0,56,29.91,10.0,SE,9.2,-,N/A,,Scattered Clouds,140,2013-02-06 04:55:00
11:15 PM,37.4,22.1,54,29.91,10.0,SSE,10.4,-,N/A,,Clear,150,2013-02-06 05:15:00
11:35 PM,36.7,22.5,56,29.90,10.0,SSE,11.5,-,N/A,,Clear,150,2013-02-06 05:35:00
11:55 PM,37.6,23.0,56,29.89,10.0,SSE,13.8,-,N/A,,Scattered Clouds,160,2013-02-06 05:55:00